Temp
15 15 15 16 16 16 16 16 17 17 17 17 18 18 19 20 20 20 20 20 20 20 20 20 20 20 21 21 25 25 25 25 25 25 25 24 24 21 19 18 19 20 18 19 17 17 20
15 15 15 15 15 16 16 16 16 17 17 17 18 18 19 20 20 20 20 20 20 20 20 20 20 20 21 20 25 26 25 25 25 25 25 24 24 23 19 20 19 19 20 19 17 16 18
15 15 15 15 15 16 16 16 16 17 17 17 18 18 19 19 20 21 21 21 21 21 20 20 20 20 21 24 25 25 25 25 25 25 25 25 24 24 21 19 19 19 20 19 18 17 18
15 15 15 16 16 16 16 16 16 16 17 17 18 18 19 19 20 21 21 21 21 21 21 20 20 20 22 25 24 25 25 25 25 25 26 25 25 23 21 19 19 19 20 20 19 20 19
15 15 15 16 16 16 16 16 16 16 17 17 18 18 19 19 20 21 21 21 21 21 21 21 20 20 23 25 25 26 25 26 26 26 26 26 25 22 19 18 18 18 19 19 19 21 20
15 15 15 16 15 16 16 16 16 17 17 17 18 18 19 19 20 21 21 21 22 21 21 21 20 20 25 26 26 26 25 26 26 26 26 26 24 18 17 17 21 19 19 20 20 20 20
15 15 15 15 16 16 16 16 17 17 17 17 18 18 19 19 20 21 21 21 21 20 20 24 25 25 26 26 25 26 26 26 26 26 23 25 21 19 19 19 22 20 19 20 20 21 21
15 15 15 15 16 16 16 16 17 17 17 17 18 18 19 19 20 21 21 22 24 23 21 24 25 23 25 26 26 27 27 26 26 23 24 22 21 23 23 21 22 22 21 21 21 22 20
16 15 15 15 16 16 16 17 17 17 17 17 18 19 20 20 21 22 22 24 25 23 21 24 26 26 26 26 26 27 27 27 25 23 24 21 24 27 24 23 22 22 21 22 22 21 19
15 15 15 15 16 16 16 17 17 17 17 18 18 20 20 20 21 22 24 24 24 23 17 21 24 27 26 27 27 28 27 27 25 24 23 22 26 26 26 23 22 21 23 25 22 19 19
15 15 15 15 15 15 16 17 17 18 18 19 19 20 20 21 22 22 24 24 23 23 19 26 25 28 28 28 28 28 28 27 24 24 26 23 25 25 26 25 23 23 25 24 22 19 19
14 14 15 15 15 15 15 16 17 18 18 19 20 20 21 21 22 23 24 24 24 19 20 26 28 27 26 27 27 28 28 28 28 25 25 23 27 27 26 28 24 26 27 24 20 19 19
14 14 14 14 15 15 15 16 17 18 19 20 21 21 21 22 23 22 24 24 18 19 24 27 26 26 25 25 26 25 25 24 23 24 21 23 25 25 28 28 27 28 22 21 20 19 19
14 14 14 14 14 15 15 15 17 18 19 20 21 22 22 22 22 23 24 19 20 23 24 27 27 25 24 25 25 25 23 23 22 23 21 22 22 26 28 26 26 26 21 21 22 19 20
14 14 14 14 14 14 15 15 16 18 19 20 22 23 22 23 23 23 23 17 18 22 25 24 24 25 25 26 26 25 23 24 24 22 22 20 22 26 26 27 26 26 24 23 24 21 20
13 13 13 14 14 14 14 15 15 17 19 20 23 22 23 22 22 22 17 16 20 24 24 24 24 26 25 26 26 24 22 24 25 24 24 23 23 25 28 28 27 25 25 24 20 23 20
13 13 13 13 13 13 14 15 15 16 19 19 21 22 23 23 22 22 16 17 22 25 25 25 24 23 25 25 25 25 25 26 27 26 24 25 23 26 28 27 25 25 25 23 19 19 19
13 13 13 13 13 13 13 14 15 15 18 19 19 17 23 23 21 17 17 21 24 24 26 23 24 26 26 25 24 24 25 26 29 27 24 23 20 22 24 27 27 25 25 21 19 23 18
12 12 12 12 12 12 13 13 15 14 16 16 16 18 22 23 17 15 18 20 23 22 22 23 25 26 25 24 23 23 25 27 28 27 28 25 21 21 23 23 26 27 23 22 19 18 21
12 11 11 11 12 11 12 13 14 15 15 17 17 14 20 20 19 17 16 18 20 23 23 24 22 23 24 23 21 22 24 26 27 28 28 25 19 21 21 22 24 26 26 21 19 17 18
11 11 10 10 11 11 11 12 13 14 15 16 16 13 13 11 13 13 16 18 20 20 23 22 21 21 20 21 19 21 22 22 24 24 23 22 22 22 22 24 24 25 26 24 22 19 20
11 10 9 9 10 11 11 11 12 13 14 14 13 11 12 12 14 14 14 16 18 19 20 19 19 20 19 19 19 18 19 20 22 22 22 18 22 23 25 25 24 24 24 25 24 23 22
12 9 9 8 9 9 10 9 10 11 12 12 11 11 11 12 12 13 13 15 17 17 19 20 20 19 19 20 22 22 21 21 20 21 20 19 19 18 21 22 22 21 22 24 24 24 23
11 9 8 8 8 9 9 9 9 9 9 10 9 10 10 9 11 12 13 14 16 16 16 19 19 18 20 20 22 22 23 22 22 20 20 20 18 16 18 21 21 20 22 24 24 24 24
10 10 8 7 8 8 8 8 9 9 9 10 8 8 9 7 10 11 12 13 14 15 15 17 17 18 19 21 17 16 16 18 20 20 21 17 16 18 18 17 20 23 22 22 23 23 25
10 8 8 8 8 8 8 8 8 9 9 9 8 8 8 9 8 10 10 12 11 11 12 16 17 18 19 14 16 16 16 18 18 19 18 19 19 18 16 19 19 20 23 24 22 20 22
10 8 8 8 8 8 8 8 8 9 9 9 8 7 7 8 10 9 8 9 11 10 9 13 14 16 17 12 15 15 15 18 17 18 18 16 16 18 19 18 19 21 22 24 20 20 21
9 8 8 8 8 8 7 7 8 8 9 9 8 7 7 7 8 10 10 9 9 9 9 12 12 13 12 11 12 13 14 14 16 16 16 16 15 16 17 17 18 21 21 21 19 22 24
8 8 8 8 8 7 7 7 7 8 8 8 9 8 7 6 9 9 10 12 11 13 10 11 12 11 14 11 12 11 13 13 12 13 12 13 12 13 14 15 16 17 18 19 20 23 22
Height
1556 1553 1549 1546 1543 1540 1537 1534 1531 1529 1526 1523 1521 1519 1516 1515 1513 1512 1511 1509 1508 1507 1506 1506 1506 1508 1509 1510 1506 1506 1507 1508 1510 1512 1513 1516 1519 1520 1522 1521 1517 1517 1525 1526 1527 1527 1528
1557 1554 1551 1547 1544 1541 1538 1535 1531 1529 1526 1523 1521 1518 1516 1514 1513 1512 1511 1509 1508 1507 1507 1506 1506 1507 1509 1510 1505 1505 1507 1507 1509 1511 1511 1516 1516 1516 1516 1514 1512 1517 1522 1525 1527 1523 1526
1558 1555 1551 1548 1544 1541 1538 1535 1532 1529 1526 1523 1520 1517 1515 1513 1512 1511 1510 1509 1508 1507 1507 1507 1507 1507 1507 1503 1503 1505 1506 1507 1508 1509 1511 1515 1514 1514 1513 1515 1516 1519 1525 1525 1527 1529 1530
1559 1555 1552 1548 1545 1541 1538 1535 1531 1528 1525 1522 1519 1516 1514 1512 1510 1509 1508 1508 1507 1506 1506 1506 1506 1506 1502 1501 1503 1504 1506 1507 1508 1510 1510 1512 1512 1512 1513 1517 1520 1523 1525 1532 1531 1528 1530
1559 1555 1552 1548 1545 1541 1537 1534 1530 1527 1523 1520 1517 1514 1512 1510 1508 1507 1506 1506 1506 1505 1505 1505 1506 1505 1499 1497 1498 1501 1504 1506 1508 1510 1510 1512 1512 1511 1515 1522 1528 1528 1535 1534 1532 1527 1527
1560 1556 1552 1549 1545 1541 1537 1533 1529 1525 1521 1518 1514 1512 1509 1507 1506 1505 1504 1504 1504 1503 1503 1504 1504 1507 1496 1494 1495 1498 1502 1505 1507 1508 1510 1509 1510 1514 1518 1525 1535 1532 1535 1529 1531 1528 1528
1560 1556 1553 1549 1545 1541 1537 1533 1528 1523 1519 1514 1511 1507 1505 1504 1502 1502 1502 1502 1505 1504 1501 1498 1495 1493 1492 1493 1495 1497 1500 1503 1505 1507 1510 1507 1517 1521 1511 1512 1513 1519 1522 1525 1522 1518 1522
1561 1557 1553 1549 1545 1541 1537 1532 1526 1521 1516 1511 1507 1503 1501 1500 1498 1498 1498 1499 1497 1500 1496 1491 1490 1490 1489 1492 1494 1495 1499 1502 1502 1507 1504 1512 1519 1501 1501 1509 1513 1515 1518 1522 1521 1516 1523
1562 1558 1554 1550 1545 1540 1535 1530 1525 1519 1514 1508 1503 1499 1496 1496 1494 1494 1494 1494 1497 1498 1497 1481 1481 1484 1484 1489 1491 1491 1496 1498 1499 1504 1503 1512 1497 1495 1498 1505 1512 1512 1516 1514 1516 1518 1523
1563 1559 1554 1549 1544 1539 1534 1528 1523 1517 1512 1506 1500 1495 1492 1492 1494 1491 1492 1493 1493 1496 1507 1487 1477 1478 1481 1485 1488 1487 1491 1496 1497 1500 1498 1502 1486 1493 1494 1504 1506 1517 1501 1503 1512 1527 1538
1564 1559 1555 1549 1544 1538 1532 1526 1520 1514 1508 1502 1497 1491 1489 1490 1490 1490 1492 1491 1491 1495 1530 1474 1475 1474 1476 1481 1481 1485 1489 1492 1494 1495 1497 1498 1490 1491 1493 1492 1495 1497 1487 1496 1506 1525 1531
1565 1560 1555 1549 1543 1537 1531 1524 1518 1511 1505 1498 1494 1488 1487 1487 1487 1489 1489 1489 1491 1510 1523 1476 1468 1471 1476 1476 1478 1481 1485 1488 1487 1490 1490 1488 1481 1480 1477 1474 1481 1475 1482 1499 1517 1530 1546
1566 1560 1555 1549 1543 1536 1529 1522 1515 1508 1501 1494 1490 1485 1484 1485 1487 1487 1488 1489 1509 1522 1476 1473 1473 1470 1475 1477 1477 1479 1485 1489 1496 1503 1507 1492 1483 1474 1474 1477 1472 1474 1499 1529 1541 1545 1545
1566 1561 1555 1549 1542 1536 1528 1520 1513 1506 1499 1491 1486 1483 1483 1483 1486 1487 1488 1494 1515 1490 1483 1468 1472 1472 1480 1473 1474 1476 1484 1493 1487 1487 1504 1510 1512 1476 1467 1473 1480 1481 1496 1522 1538 1546 1532
1566 1561 1555 1549 1542 1535 1527 1519 1511 1504 1497 1488 1485 1483 1483 1484 1486 1487 1490 1513 1504 1488 1478 1479 1472 1479 1480 1473 1472 1475 1481 1482 1477 1480 1500 1508 1501 1466 1466 1462 1468 1479 1492 1481 1498 1513 1529
1566 1560 1555 1549 1542 1535 1527 1520 1511 1503 1496 1489 1484 1484 1485 1486 1486 1488 1494 1506 1491 1478 1476 1477 1488 1476 1484 1476 1478 1481 1481 1466 1468 1466 1467 1478 1495 1466 1458 1454 1460 1468 1469 1496 1508 1523 1539
1565 1560 1555 1548 1542 1535 1528 1520 1512 1502 1496 1490 1485 1485 1486 1486 1488 1489 1502 1498 1482 1474 1475 1476 1477 1480 1472 1475 1474 1477 1473 1464 1459 1456 1459 1466 1481 1468 1460 1465 1472 1473 1479 1485 1498 1509 1534
1565 1560 1554 1548 1542 1535 1529 1522 1515 1505 1496 1492 1488 1488 1487 1488 1490 1491 1495 1485 1478 1473 1471 1468 1463 1461 1464 1466 1470 1471 1471 1463 1453 1451 1464 1457 1476 1487 1474 1455 1453 1460 1468 1481 1509 1505 1514
1564 1559 1554 1548 1542 1535 1529 1522 1516 1510 1500 1496 1494 1490 1489 1489 1499 1499 1490 1484 1480 1477 1473 1470 1466 1461 1460 1465 1475 1465 1460 1451 1449 1447 1450 1450 1474 1492 1482 1470 1455 1461 1469 1474 1486 1495 1501
1563 1558 1552 1547 1541 1535 1529 1523 1517 1512 1506 1502 1499 1498 1490 1491 1495 1498 1498 1490 1484 1476 1471 1469 1468 1460 1460 1462 1462 1467 1461 1451 1448 1446 1444 1442 1465 1476 1492 1479 1465 1467 1465 1476 1484 1508 1509
1561 1556 1550 1546 1541 1535 1529 1524 1518 1513 1508 1506 1505 1506 1508 1507 1498 1499 1498 1491 1487 1483 1474 1470 1469 1473 1474 1471 1471 1468 1459 1453 1448 1448 1446 1450 1467 1462 1462 1458 1459 1459 1461 1468 1479 1485 1495
1558 1553 1549 1545 1540 1536 1530 1525 1520 1515 1511 1509 1510 1512 1510 1507 1502 1499 1494 1495 1491 1485 1480 1479 1480 1474 1475 1481 1479 1480 1471 1464 1459 1453 1452 1454 1463 1457 1460 1455 1457 1462 1458 1459 1464 1470 1475
1555 1551 1547 1544 1539 1535 1531 1526 1521 1517 1514 1513 1514 1514 1513 1507 1504 1503 1501 1499 1492 1489 1480 1480 1477 1474 1472 1472 1469 1467 1465 1462 1460 1460 1459 1461 1467 1474 1475 1461 1461 1476 1462 1458 1459 1459 1466
1552 1548 1545 1542 1538 1535 1531 1527 1523 1520 1518 1517 1516 1515 1514 1512 1507 1505 1501 1498 1492 1490 1488 1478 1475 1474 1471 1466 1463 1462 1459 1457 1454 1453 1455 1460 1467 1475 1480 1466 1487 1461 1446 1445 1454 1454 1455
1550 1547 1543 1541 1538 1534 1531 1528 1525 1522 1521 1518 1518 1517 1516 1514 1506 1503 1500 1496 1490 1486 1483 1479 1476 1475 1469 1461 1464 1468 1468 1461 1455 1450 1451 1453 1465 1473 1481 1485 1468 1453 1450 1451 1454 1454 1448
1549 1545 1543 1540 1537 1534 1531 1528 1525 1523 1521 1520 1518 1518 1517 1516 1506 1503 1500 1497 1495 1491 1485 1479 1474 1471 1468 1465 1468 1476 1480 1467 1469 1457 1449 1450 1453 1467 1484 1484 1485 1457 1440 1439 1445 1467 1447
1547 1544 1541 1539 1536 1533 1530 1527 1525 1523 1521 1520 1519 1518 1516 1514 1502 1501 1501 1499 1497 1496 1493 1484 1480 1473 1469 1473 1475 1478 1477 1462 1473 1467 1464 1465 1464 1466 1466 1478 1470 1451 1447 1442 1467 1467 1450
1545 1542 1540 1537 1535 1532 1529 1526 1524 1522 1520 1519 1518 1517 1516 1511 1498 1495 1494 1495 1494 1497 1496 1487 1484 1477 1475 1481 1481 1479 1476 1471 1467 1461 1462 1465 1470 1468 1466 1473 1477 1453 1455 1455 1448 1443 1444
1542 1540 1538 1535 1533 1530 1528 1525 1523 1521 1519 1517 1516 1515 1512 1509 1497 1493 1486 1485 1489 1487 1489 1488 1485 1485 1480 1481 1481 1480 1478 1474 1479 1476 1464 1472 1468 1468 1469 1466 1454 1454 1454 1449 1443 1442 1451
Wind_Speed
24 23 22 21 21 20 20 19 18 17 17 16 15 13 11 10 10 10 10 9 9 7 5 4 3 3 3 4 8 4 3 2 6 5 10 8 4 9 5 3 7 11 2 6 12 14 2
24 23 22 22 21 20 20 19 18 18 17 17 16 15 12 9 8 8 9 8 7 6 5 4 2 1 3 3 4 6 4 5 8 9 13 6 4 14 10 1 6 5 6 6 15 14 14
23 24 22 22 22 21 21 20 19 18 18 17 16 15 14 12 9 8 8 7 7 5 4 4 3 2 7 11 4 2 4 4 8 10 8 2 9 9 11 5 5 1 5 9 6 6 4
24 23 23 22 22 21 20 21 20 19 18 17 17 15 14 13 11 9 8 7 7 7 5 4 5 6 8 7 8 8 4 7 7 6 5 6 7 12 1 11 5 3 3 3 3 14 3
25 25 24 24 22 21 21 21 22 21 20 19 18 16 15 14 12 10 10 9 8 7 7 6 5 4 9 9 13 10 14 2 7 7 6 10 14 4 6 5 3 5 4 3 4 5 4
25 25 24 24 23 23 23 23 24 23 23 22 20 18 16 14 13 10 11 10 9 9 7 8 9 7 11 6 11 14 10 8 10 10 15 14 2 3 2 3 1 3 2 3 5 6 7
25 25 24 24 24 24 25 26 26 25 25 24 22 20 17 14 13 11 11 10 7 3 6 12 7 11 11 8 8 13 15 14 14 12 6 11 3 8 12 9 3 8 6 5 3 9 6
26 25 26 26 26 27 27 28 28 27 26 26 24 20 17 13 12 11 11 9 10 2 9 19 21 26 24 16 4 14 16 12 7 6 3 3 8 15 12 6 7 6 3 2 2 10 3
26 26 27 28 29 29 29 29 29 28 28 28 27 22 16 11 12 10 12 14 11 16 5 15 20 24 22 9 13 17 19 18 5 5 7 8 16 5 12 9 10 7 5 6 7 7 2
27 28 29 31 31 31 31 31 30 29 29 30 30 23 14 8 6 5 1 7 7 5 4 7 7 8 15 17 9 15 23 17 4 11 7 7 21 10 9 9 9 7 16 9 15 8 4
28 29 31 32 33 33 33 32 32 31 31 31 29 20 10 6 5 8 3 5 9 5 3 4 5 5 11 19 4 12 23 21 10 8 2 12 10 6 7 10 17 13 12 20 14 5 3
30 31 33 33 34 34 34 33 33 33 32 31 25 18 7 8 7 2 3 3 5 5 5 3 9 7 7 10 8 5 28 17 13 4 3 10 12 5 7 4 24 7 4 13 7 2 5
32 33 35 35 36 36 35 35 34 34 33 32 24 14 6 6 5 2 3 3 5 3 5 4 6 7 9 7 5 9 10 8 6 2 6 8 9 9 3 5 3 2 6 3 2 1 6
33 34 35 36 37 37 37 37 36 34 34 31 19 8 3 3 9 4 4 5 2 4 5 4 2 4 9 6 5 10 8 6 6 4 3 4 10 1 4 7 7 4 8 5 5 4 4
32 34 34 36 37 38 38 38 38 36 36 31 13 3 5 6 11 7 5 3 6 4 2 7 9 4 3 4 5 6 10 13 11 10 8 6 7 7 9 8 10 6 2 7 3 3 4
32 33 35 36 37 38 37 37 38 38 35 31 11 4 3 7 11 9 5 5 5 3 7 4 2 1 1 3 2 2 7 8 8 14 10 6 5 6 6 9 3 9 5 3 3 1 1
33 33 35 36 36 37 38 36 37 40 35 33 8 3 5 9 9 3 3 7 6 18 15 3 7 7 5 3 5 3 4 9 12 9 17 11 4 18 3 3 7 1 2 4 5 5 5
33 34 34 36 36 36 36 35 33 38 36 31 10 2 11 11 2 1 2 4 5 13 26 10 8 3 1 2 4 4 5 5 11 8 8 11 7 8 11 5 5 6 8 5 5 3 2
34 34 35 35 35 34 35 35 29 32 33 32 15 8 4 16 2 4 7 6 5 7 7 8 6 1 3 2 3 4 4 12 16 6 4 5 2 0 8 7 4 4 5 5 5 2 3
34 35 34 33 34 34 33 34 28 27 23 19 9 4 7 9 4 3 6 6 8 14 7 6 6 8 4 4 3 5 4 5 18 5 6 7 4 7 8 7 3 1 3 4 5 4 3
36 36 31 31 31 32 31 30 27 25 16 10 9 4 7 4 5 9 3 3 9 8 7 13 7 12 7 6 9 7 5 6 7 11 8 4 5 5 6 6 5 3 2 8 4 7 6
38 30 29 29 28 28 27 27 27 24 17 11 5 7 10 11 13 8 5 6 8 15 5 8 4 10 8 4 2 6 6 5 3 7 5 6 2 1 3 6 8 6 8 5 4 6 4
35 27 25 26 23 24 24 25 25 24 21 9 11 8 3 7 7 4 2 8 13 11 7 13 11 5 7 4 13 16 16 9 5 3 4 3 2 3 3 3 7 2 7 4 3 1 6
29 24 21 23 21 22 21 22 21 20 20 14 12 8 4 4 4 4 13 16 12 14 5 17 16 6 15 28 19 12 11 12 11 8 4 1 3 2 4 3 2 7 4 6 6 4 7
26 25 18 20 20 20 19 19 18 18 17 13 10 8 5 4 8 12 15 9 16 18 9 7 20 24 28 14 3 4 5 6 5 6 7 6 4 0 2 4 5 0 5 6 6 5 5
23 18 18 18 19 18 18 18 16 16 15 8 7 7 4 7 4 12 7 9 4 5 7 6 27 25 18 3 3 3 4 3 4 6 5 4 5 4 3 2 6 6 4 12 7 4 5
18 16 16 18 18 18 17 16 15 15 15 11 4 8 7 6 9 6 5 4 6 6 4 8 14 11 14 4 1 2 3 2 4 3 5 4 2 9 13 5 6 6 1 9 7 5 12
15 15 16 17 18 17 17 15 14 14 14 12 2 6 9 6 24 9 1 8 14 9 3 9 11 6 5 6 3 3 2 3 3 2 4 3 2 3 2 4 6 4 8 6 8 4 9
14 15 16 17 16 16 16 14 13 14 14 14 11 8 12 14 26 34 32 22 18 19 22 6 4 6 5 3 2 2 2 2 3 3 5 2 3 2 2 2 4 4 4 10 2 10 2
Wind_Direction
25 23 23 20 19 19 19 17 15 12 9 6 5 3 359 353 352 357 359 358 359 357 340 314 286 252 243 237 236 36 356 224 184 183 199 198 112 111 147 163 135 56 11 29 62 50 159
21 19 19 18 15 15 14 12 9 6 3 1 357 354 351 342 337 341 348 351 348 354 14 17 354 241 220 260 231 222 323 232 190 186 205 211 86 128 133 34 85 105 76 59 56 39 344
17 16 14 14 14 12 10 7 3 0 357 354 351 346 341 334 323 323 331 337 332 317 339 357 352 301 251 223 159 174 352 211 185 188 198 245 228 203 156 159 109 134 155 112 133 126 238
14 14 14 11 8 7 5 5 3 357 350 347 343 339 334 328 317 306 307 313 321 308 285 300 326 312 260 191 203 240 193 144 166 183 205 291 147 153 108 108 50 42 61 103 221 161 205
12 14 12 11 9 7 3 1 1 357 351 343 336 333 326 323 313 296 288 295 305 309 272 269 300 307 263 209 227 218 211 184 164 188 228 249 236 122 110 93 29 8 141 147 161 238 138
11 11 10 10 9 6 3 358 355 351 346 340 333 327 321 317 310 296 283 285 291 293 261 249 252 297 243 235 220 204 204 218 224 228 241 257 157 78 44 115 251 156 203 187 142 181 174
13 12 12 13 11 6 1 356 351 349 343 338 332 322 315 312 304 297 281 282 278 250 235 237 243 220 278 313 230 203 186 203 225 243 199 237 89 221 214 199 118 145 162 166 204 171 181
17 18 18 14 9 3 358 357 352 350 347 343 337 323 313 306 298 289 273 251 229 178 293 282 263 254 259 277 242 176 174 195 205 228 247 359 230 237 233 170 164 177 141 105 126 175 130
19 19 15 10 6 2 359 357 354 351 347 343 340 327 315 303 298 279 259 247 266 279 291 289 237 237 254 232 224 174 180 204 191 229 230 202 247 235 214 174 172 208 173 198 154 157 41
17 14 11 6 4 0 358 355 354 351 348 343 340 331 319 307 295 248 169 44 309 280 41 278 187 229 228 229 212 191 189 193 200 226 245 230 259 244 195 196 164 210 203 210 143 146 199
13 10 7 3 0 358 355 353 352 351 347 343 344 332 318 291 246 233 1 353 344 146 9 231 179 159 179 173 148 198 194 199 218 246 98 263 297 291 209 211 171 226 177 191 175 120 101
11 7 4 2 359 355 353 350 349 350 348 342 347 323 309 287 255 223 249 23 129 51 259 265 166 155 132 193 206 171 182 203 228 215 227 247 274 225 242 275 183 215 134 153 97 110 6
8 6 4 1 358 356 353 350 348 350 349 342 345 317 298 264 148 112 222 51 54 152 307 216 178 140 172 190 222 154 181 200 185 126 286 325 291 293 249 273 293 130 64 118 129 195 216
4 1 0 359 359 357 354 351 349 350 352 343 349 333 326 198 155 132 138 56 175 256 265 348 173 182 183 196 217 171 142 202 267 164 137 213 311 190 277 199 203 166 146 156 201 193 247
360 359 358 357 357 356 354 352 350 350 355 347 3 29 103 110 163 159 102 88 215 224 339 349 341 122 290 255 213 142 186 203 201 174 183 176 265 269 239 230 150 258 143 192 137 81 119
356 356 356 355 354 355 354 354 351 350 356 353 1 36 141 104 164 161 81 231 249 266 320 22 320 311 191 289 31 143 196 214 220 189 172 221 288 217 272 197 174 161 181 38 15 59 32
354 354 352 352 352 353 355 355 353 348 354 1 35 50 141 146 153 139 159 231 281 280 291 250 284 253 193 203 157 270 229 271 218 223 181 201 161 272 180 140 190 301 255 80 115 130 158
353 350 349 350 350 350 354 354 355 351 350 7 9 33 169 164 112 138 191 227 277 290 311 267 223 249 262 291 281 193 234 217 307 234 165 209 171 221 231 247 206 183 199 139 126 243 131
348 346 345 346 348 349 351 353 355 359 348 354 349 326 9 203 47 337 322 299 315 355 327 351 321 308 133 254 348 229 269 286 313 8 267 172 198 78 334 350 357 128 139 124 122 66 111
343 343 341 343 346 347 349 351 356 1 349 354 1 2 340 49 105 38 351 297 326 321 297 334 277 338 354 329 154 278 318 307 345 334 311 56 113 154 201 204 179 120 130 80 106 108 211
339 337 341 342 343 346 348 352 358 4 6 11 19 19 15 331 338 329 282 308 329 340 340 11 360 11 348 331 346 338 324 334 1 13 4 96 199 163 183 209 151 166 247 152 149 170 134
334 336 339 340 340 345 349 355 359 7 16 43 40 13 345 301 309 329 4 345 343 348 338 344 25 347 31 52 125 297 324 16 308 334 32 349 272 230 201 195 170 185 188 211 191 161 151
336 340 340 337 341 347 351 359 1 6 21 46 27 3 346 301 329 360 6 327 326 355 308 347 335 334 333 252 327 315 322 283 229 319 327 58 63 48 266 339 125 30 204 175 313 149 169
335 337 334 339 343 347 353 2 9 13 21 25 23 14 341 288 322 343 316 334 327 327 268 318 12 21 316 320 307 302 332 337 327 315 170 303 98 111 215 35 214 240 215 153 166 237 270
336 337 346 344 345 348 353 3 7 10 16 24 38 28 345 299 296 315 338 314 324 349 347 300 356 337 335 315 27 14 339 3 295 237 266 157 116 29 165 181 272 270 160 151 163 254 276
342 356 350 342 345 347 351 358 1 3 11 30 35 13 2 317 239 350 316 316 333 323 332 319 329 341 345 47 77 183 205 237 286 319 30 340 150 125 31 300 216 243 181 129 96 283 340
343 347 343 345 344 345 348 351 354 356 2 7 27 8 357 284 281 319 291 306 335 359 286 312 335 326 5 17 9 217 241 247 249 223 266 320 332 204 211 191 303 335 310 104 122 218 334
341 340 340 341 339 340 342 344 347 350 352 0 351 319 337 276 288 277 192 250 300 299 234 320 339 348 359 34 33 314 2 283 309 293 299 180 244 183 126 175 194 120 296 175 197 239 10
338 336 335 333 334 337 339 342 345 344 344 343 346 328 263 271 272 291 284 264 256 283 253 252 261 325 278 57 13 326 321 334 350 294 327 43 161 200 172 212 308 33 314 335 237 166 138